THY9521 SKBO-SOCA

Flight info

Callsign THY9521
Flight time 3h 13m
Altitude 35000
Route DANSA4R ANLAV DCT ANGUV DCT KEXAN DCT UMBET DCT POVLA/N0467F370 DCT GEMOL DCT TEKAD TEKAD1U
Aircraft B738/M-SDE2E3FGHIRWXY/LB1

Departure

Time 2026-04-26 10:42
Airport El Dorado International Airport (SKBO)

Arrival

Time 2026-04-26 13:55
Airport Cayenne – Félix Eboué Airport (SOCA)
Time Latitude Longitude Altitude Speed Heading
2026-04-26 10:12 4.69972 -74.14299 8369 ft 0 kts 37°
2026-04-26 10:32 4.69970 -74.14301 8369 ft 3 kts 37°
2026-04-26 10:32 4.69948 -74.14315 8370 ft 4 kts 27°
2026-04-26 10:32 4.69924 -74.14325 8369 ft 4 kts
2026-04-26 10:32 4.69901 -74.14321 8369 ft 3 kts 313°
2026-04-26 10:33 4.69899 -74.14318 8369 ft 1 kts 307°
2026-04-26 10:35 4.69906 -74.14328 8369 ft 5 kts 307°
2026-04-26 10:35 4.69938 -74.14371 8369 ft 10 kts 307°
2026-04-26 10:36 4.69992 -74.14443 8369 ft 15 kts 307°
2026-04-26 10:36 4.70063 -74.14539 8369 ft 19 kts 304°
2026-04-26 10:36 4.70103 -74.14654 8362 ft 14 kts 241°
2026-04-26 10:36 4.70050 -74.14697 8369 ft 16 kts 218°
2026-04-26 10:37 4.69948 -74.14774 8369 ft 21 kts 217°
2026-04-26 10:37 4.69825 -74.14872 8369 ft 24 kts 232°
2026-04-26 10:37 4.69883 -74.15016 8370 ft 26 kts 308°
2026-04-26 10:37 4.69999 -74.15167 8370 ft 29 kts 307°
2026-04-26 10:38 4.70120 -74.15326 8369 ft 29 kts 307°
2026-04-26 10:38 4.70242 -74.15489 8370 ft 29 kts 307°
2026-04-26 10:38 4.70362 -74.15647 8369 ft 28 kts 307°
2026-04-26 10:38 4.70476 -74.15796 8369 ft 26 kts 307°
2026-04-26 10:39 4.70581 -74.15936 8369 ft 24 kts 307°
2026-04-26 10:39 4.70681 -74.16069 8370 ft 25 kts 307°
2026-04-26 10:39 4.70792 -74.16216 8370 ft 28 kts 307°
2026-04-26 10:39 4.70915 -74.16378 8370 ft 29 kts 307°
2026-04-26 10:40 4.71036 -74.16534 8369 ft 29 kts 307°
2026-04-26 10:40 4.71159 -74.16697 8370 ft 29 kts 307°
2026-04-26 10:40 4.71173 -74.16822 8370 ft 15 kts 214°
2026-04-26 10:40 4.71075 -74.16883 8370 ft 18 kts 199°
2026-04-26 10:41 4.70984 -74.16821 8371 ft 26 kts 125°
2026-04-26 10:41 4.70733 -74.16492 8372 ft 92 kts 127°
2026-04-26 10:41 4.70226 -74.15821 8370 ft 148 kts 127°
2026-04-26 10:41 4.69503 -74.14860 8404 ft 194 kts 127°
2026-04-26 10:42 4.68673 -74.13754 9051 ft 201 kts 127°
2026-04-26 10:42 4.67643 -74.12785 9715 ft 208 kts 150°
2026-04-26 10:42 4.66253 -74.12316 10168 ft 220 kts 179°
2026-04-26 10:42 4.64748 -74.12798 10268 ft 240 kts 221°
2026-04-26 10:43 4.63886 -74.14198 10657 ft 245 kts 258°
2026-04-26 10:43 4.63529 -74.15861 11221 ft 245 kts 254°
2026-04-26 10:43 4.62977 -74.17486 11771 ft 246 kts 249°
2026-04-26 10:43 4.62302 -74.19073 12318 ft 248 kts 246°
2026-04-26 10:44 4.61595 -74.20658 12854 ft 250 kts 251°
2026-04-26 10:44 4.61154 -74.22386 13084 ft 266 kts 259°
2026-04-26 10:44 4.60810 -74.24269 13311 ft 280 kts 260°
2026-04-26 10:44 4.60433 -74.26200 13743 ft 285 kts 253°
2026-04-26 10:45 4.59584 -74.28007 14217 ft 291 kts 236°
2026-04-26 10:45 4.58248 -74.29594 14412 ft 311 kts 226°
2026-04-26 10:45 4.56695 -74.31138 14929 ft 317 kts 225°
2026-04-26 10:45 4.55150 -74.32670 15807 ft 308 kts 226°
2026-04-26 10:46 4.53640 -74.34196 16493 ft 309 kts 226°
2026-04-26 10:46 4.51967 -74.35599 16802 ft 324 kts 207°
2026-04-26 10:46 4.49800 -74.36447 16948 ft 343 kts 205°
2026-04-26 10:46 4.47668 -74.37640 17062 ft 360 kts 213°
2026-04-26 10:47 4.45522 -74.39052 17168 ft 377 kts 213°
2026-04-26 10:47 4.43262 -74.40494 17268 ft 393 kts 212°
2026-04-26 10:47 4.40888 -74.41944 17388 ft 406 kts 211°
2026-04-26 10:47 4.38410 -74.43379 17566 ft 416 kts 206°
2026-04-26 10:48 4.35621 -74.44207 17864 ft 423 kts 186°
2026-04-26 10:48 4.32681 -74.44056 18314 ft 426 kts 167°
2026-04-26 10:48 4.29951 -74.42925 18725 ft 428 kts 147°
2026-04-26 10:48 4.27750 -74.40921 19085 ft 431 kts 127°
2026-04-26 10:49 4.26317 -74.38286 19450 ft 433 kts 108°
2026-04-26 10:49 4.25689 -74.35333 19835 ft 434 kts 99°
2026-04-26 10:49 4.25224 -74.32332 20187 ft 437 kts 98°
2026-04-26 10:49 4.24777 -74.29311 20525 ft 440 kts 98°
2026-04-26 10:50 4.24318 -74.26274 20867 ft 442 kts 98°
2026-04-26 10:50 4.24004 -74.24255 21105 ft 443 kts 98°
2026-04-26 10:50 4.23354 -74.20207 21568 ft 446 kts 99°
2026-04-26 10:50 4.22850 -74.17137 21906 ft 447 kts 99°
2026-04-26 10:51 4.22340 -74.14054 22242 ft 449 kts 99°
2026-04-26 10:51 4.21315 -74.07865 22863 ft 453 kts 99°
2026-04-26 10:51 4.20798 -74.04738 23155 ft 454 kts 99°
2026-04-26 10:52 4.20281 -74.01607 23437 ft 456 kts 99°
2026-04-26 10:52 4.19794 -73.98457 23692 ft 458 kts 94°
2026-04-26 10:52 4.20011 -73.95284 23896 ft 459 kts 76°
2026-04-26 10:52 4.21112 -73.92292 24139 ft 459 kts 61°
2026-04-26 10:53 4.22958 -73.89695 24384 ft 459 kts 50°
2026-04-26 10:53 4.25033 -73.87264 24587 ft 460 kts 49°
2026-04-26 10:53 4.27147 -73.84840 24748 ft 463 kts 49°
2026-04-26 10:54 4.31377 -73.79933 25134 ft 466 kts 50°
2026-04-26 10:54 4.33472 -73.77458 25349 ft 467 kts 50°
2026-04-26 10:54 4.35573 -73.74959 25565 ft 468 kts 50°
2026-04-26 10:54 4.37646 -73.72486 25767 ft 470 kts 50°
2026-04-26 10:55 4.39753 -73.69973 25981 ft 471 kts 50°
2026-04-26 10:55 4.41866 -73.67456 26188 ft 472 kts 50°
2026-04-26 10:55 4.43984 -73.64936 26397 ft 473 kts 50°
2026-04-26 10:55 4.46111 -73.62404 26588 ft 475 kts 50°
2026-04-26 10:56 4.48241 -73.59870 26778 ft 476 kts 50°
2026-04-26 10:56 4.50379 -73.57325 26949 ft 478 kts 50°
2026-04-26 10:56 4.52524 -73.54771 27124 ft 480 kts 50°
2026-04-26 10:56 4.54678 -73.52205 27295 ft 481 kts 51°
2026-04-26 10:57 4.56835 -73.49635 27479 ft 482 kts 51°
2026-04-26 10:57 4.58997 -73.47059 27635 ft 483 kts 51°
2026-04-26 10:57 4.61163 -73.44478 27780 ft 484 kts 51°
2026-04-26 10:57 4.63334 -73.41890 27941 ft 485 kts 51°
2026-04-26 10:58 4.65504 -73.39303 28175 ft 485 kts 51°
2026-04-26 10:58 4.67672 -73.36719 28438 ft 483 kts 51°
2026-04-26 10:58 4.69831 -73.34132 28699 ft 482 kts 53°
2026-04-26 10:58 4.71531 -73.31258 28867 ft 480 kts 69°
2026-04-26 10:59 4.72404 -73.28098 29113 ft 477 kts 84°
2026-04-26 10:59 4.72569 -73.24788 29435 ft 474 kts 90°
2026-04-26 10:59 4.72586 -73.21498 29750 ft 472 kts 91°
2026-04-26 10:59 4.72579 -73.18209 30011 ft 471 kts 91°
2026-04-26 11:00 4.72577 -73.14924 30255 ft 470 kts 91°
2026-04-26 11:00 4.72589 -73.11647 30512 ft 469 kts 91°
2026-04-26 11:00 4.72615 -73.08391 30804 ft 467 kts 90°
2026-04-26 11:00 4.72652 -73.05141 31085 ft 465 kts 90°
2026-04-26 11:01 4.72695 -73.01903 31330 ft 464 kts 90°
2026-04-26 11:01 4.72740 -72.98668 31584 ft 463 kts 90°
2026-04-26 11:01 4.72785 -72.95437 31856 ft 461 kts 90°
2026-04-26 11:01 4.72830 -72.92223 32139 ft 460 kts 91°
2026-04-26 11:02 4.72873 -72.89026 32419 ft 458 kts 91°
2026-04-26 11:02 4.72916 -72.85873 32679 ft 457 kts 91°
2026-04-26 11:02 4.72959 -72.82651 32959 ft 456 kts 91°
2026-04-26 11:02 4.73000 -72.79517 33239 ft 455 kts 91°
2026-04-26 11:03 4.73041 -72.76354 33522 ft 453 kts 91°
2026-04-26 11:03 4.73083 -72.73194 33804 ft 452 kts 91°
2026-04-26 11:03 4.73124 -72.70044 34072 ft 451 kts 91°
2026-04-26 11:03 4.73165 -72.66905 34281 ft 451 kts 91°
2026-04-26 11:04 4.73205 -72.63760 34464 ft 451 kts 91°
2026-04-26 11:04 4.73246 -72.60622 34667 ft 450 kts 91°
2026-04-26 11:04 4.73286 -72.57486 34870 ft 450 kts 91°
2026-04-26 11:04 4.73326 -72.54348 35007 ft 451 kts 91°
2026-04-26 11:05 4.73406 -72.48035 35002 ft 452 kts 91°
2026-04-26 11:05 4.73487 -72.41746 34992 ft 450 kts 91°
2026-04-26 11:06 4.73552 -72.36537 34984 ft 449 kts 91°
2026-04-26 11:06 4.73571 -72.29236 34976 ft 447 kts 93°
2026-04-26 11:07 4.73323 -72.23052 34974 ft 447 kts 94°
2026-04-26 11:07 4.73037 -72.16825 34967 ft 447 kts 94°
2026-04-26 11:08 4.72779 -72.10566 34956 ft 449 kts 94°
2026-04-26 11:08 4.72542 -72.04345 34947 ft 450 kts 94°
2026-04-26 11:09 4.72306 -71.98026 34945 ft 451 kts 94°
2026-04-26 11:09 4.72073 -71.91777 34943 ft 453 kts 94°
2026-04-26 11:10 4.71836 -71.85459 34944 ft 453 kts 94°
2026-04-26 11:10 4.71597 -71.79127 34942 ft 454 kts 94°
2026-04-26 11:11 4.71358 -71.72788 34942 ft 455 kts 94°
2026-04-26 11:11 4.71118 -71.66458 34944 ft 455 kts 94°
2026-04-26 11:12 4.70877 -71.60122 34940 ft 455 kts 93°
2026-04-26 11:12 4.70636 -71.53794 34943 ft 454 kts 93°
2026-04-26 11:13 4.70396 -71.47501 34946 ft 454 kts 93°
2026-04-26 11:13 4.70154 -71.41175 34944 ft 454 kts 93°
2026-04-26 11:14 4.69911 -71.34839 34943 ft 454 kts 93°
2026-04-26 11:14 4.69709 -71.29583 34943 ft 454 kts 93°
2026-04-26 11:15 4.69424 -71.22190 34945 ft 454 kts 93°
2026-04-26 11:15 4.69180 -71.15852 34945 ft 455 kts 93°
2026-04-26 11:16 4.68934 -71.09514 34946 ft 455 kts 93°
2026-04-26 11:16 4.68689 -71.03198 34948 ft 456 kts 93°
2026-04-26 11:17 4.68442 -70.96842 34947 ft 456 kts 93°
2026-04-26 11:17 4.68194 -70.90480 34946 ft 457 kts 93°
2026-04-26 11:18 4.67945 -70.84110 34948 ft 457 kts 93°
2026-04-26 11:18 4.67696 -70.77738 34951 ft 457 kts 93°
2026-04-26 11:19 4.67446 -70.71358 34948 ft 457 kts 93°
2026-04-26 11:19 4.67195 -70.64985 34948 ft 457 kts 93°
2026-04-26 11:20 4.66986 -70.59688 34948 ft 457 kts 93°
2026-04-26 11:20 4.66694 -70.52285 34948 ft 456 kts 93°
2026-04-26 11:21 4.66442 -70.45928 34954 ft 456 kts 93°
2026-04-26 11:21 4.66190 -70.39584 34953 ft 455 kts 93°
2026-04-26 11:22 4.66025 -70.33233 34954 ft 455 kts 89°
2026-04-26 11:22 4.66427 -70.26938 34955 ft 455 kts 86°
2026-04-26 11:23 4.66948 -70.20615 34955 ft 455 kts 86°
2026-04-26 11:23 4.67437 -70.14301 34955 ft 454 kts 87°
2026-04-26 11:24 4.67816 -70.09049 34952 ft 454 kts 87°
2026-04-26 11:24 4.68259 -70.02737 34956 ft 453 kts 87°
2026-04-26 11:25 4.68699 -69.96429 34957 ft 453 kts 87°
2026-04-26 11:25 4.69139 -69.90129 34955 ft 453 kts 87°
2026-04-26 11:26 4.69579 -69.83829 34957 ft 453 kts 87°
2026-04-26 11:26 4.70019 -69.77525 34959 ft 453 kts 87°
2026-04-26 11:27 4.70459 -69.71213 34960 ft 453 kts 87°
2026-04-26 11:27 4.70898 -69.64900 34959 ft 454 kts 87°
2026-04-26 11:28 4.71337 -69.58587 34962 ft 454 kts 87°
2026-04-26 11:28 4.71774 -69.52302 34960 ft 455 kts 87°
2026-04-26 11:29 4.72213 -69.45968 34962 ft 455 kts 87°
2026-04-26 11:29 4.72651 -69.39637 34961 ft 456 kts 87°
2026-04-26 11:30 4.73016 -69.34362 34962 ft 456 kts 86°
2026-04-26 11:30 4.73529 -69.26934 34961 ft 457 kts 86°
2026-04-26 11:31 4.73968 -69.20566 34962 ft 458 kts 86°
2026-04-26 11:31 4.74405 -69.14231 34965 ft 458 kts 86°
2026-04-26 11:32 4.74843 -69.07859 34965 ft 458 kts 86°
2026-04-26 11:32 4.75282 -69.01472 34962 ft 459 kts 86°
2026-04-26 11:33 4.75720 -68.95082 34969 ft 459 kts 86°
2026-04-26 11:33 4.76155 -68.88733 34968 ft 459 kts 86°
2026-04-26 11:34 4.76592 -68.82348 34968 ft 459 kts 86°
2026-04-26 11:34 4.77029 -68.75953 34966 ft 459 kts 86°
2026-04-26 11:35 4.77465 -68.69564 34967 ft 459 kts 86°
2026-04-26 11:35 4.77899 -68.63181 34967 ft 459 kts 86°
2026-04-26 11:36 4.78334 -68.56790 34967 ft 459 kts 86°
2026-04-26 11:36 4.78768 -68.50406 34967 ft 459 kts 86°
2026-04-26 11:37 4.79198 -68.44064 34970 ft 459 kts 86°
2026-04-26 11:37 4.79631 -68.37681 34969 ft 458 kts 86°
2026-04-26 11:38 4.79758 -68.31298 34969 ft 457 kts 95°
2026-04-26 11:38 4.79108 -68.24958 34963 ft 457 kts 97°
2026-04-26 11:39 4.78405 -68.18618 34984 ft 457 kts 96°
2026-04-26 11:39 4.77735 -68.12321 34976 ft 456 kts 96°
2026-04-26 11:40 4.77085 -68.05998 34976 ft 456 kts 96°
2026-04-26 11:40 4.76444 -67.99681 34974 ft 455 kts 96°
2026-04-26 11:42 4.73881 -67.74506 34980 ft 452 kts 96°
2026-04-26 11:43 4.73245 -67.68278 34979 ft 451 kts 96°
2026-04-26 11:43 4.72605 -67.62023 34979 ft 451 kts 96°
2026-04-26 11:44 4.71965 -67.55772 34981 ft 450 kts 96°
2026-04-26 11:44 4.71325 -67.49522 34982 ft 450 kts 96°
2026-04-26 11:45 4.70686 -67.43287 34985 ft 450 kts 96°
2026-04-26 11:45 4.70047 -67.37055 34991 ft 449 kts 96°
2026-04-26 11:46 4.69406 -67.30813 34992 ft 450 kts 96°
2026-04-26 11:46 4.68765 -67.24580 35003 ft 449 kts 96°
2026-04-26 11:47 4.68124 -67.18349 35011 ft 449 kts 96°
2026-04-26 11:47 4.67482 -67.12118 35015 ft 450 kts 96°
2026-04-26 11:48 4.66840 -67.05882 35026 ft 450 kts 96°
2026-04-26 11:48 4.66197 -66.99650 35022 ft 449 kts 96°
2026-04-26 11:49 4.65558 -66.93457 35023 ft 449 kts 96°
2026-04-26 11:49 4.64914 -66.87227 35025 ft 449 kts 96°
2026-04-26 11:50 4.64269 -66.80983 35088 ft 452 kts 96°
2026-04-26 11:50 4.63945 -66.77851 35314 ft 452 kts 96°
2026-04-26 11:50 4.63621 -66.74728 35616 ft 449 kts 96°
2026-04-26 11:51 4.63299 -66.71621 35887 ft 447 kts 96°
2026-04-26 11:51 4.62977 -66.68512 36072 ft 448 kts 96°
2026-04-26 11:51 4.62655 -66.65407 36258 ft 448 kts 96°
2026-04-26 11:51 4.62333 -66.62300 36459 ft 448 kts 96°
2026-04-26 11:52 4.62016 -66.59236 36678 ft 447 kts 96°
2026-04-26 11:52 4.61798 -66.57145 36838 ft 446 kts 96°
2026-04-26 11:52 4.61373 -66.53050 37007 ft 447 kts 96°
2026-04-26 11:52 4.61051 -66.49947 37005 ft 449 kts 96°
2026-04-26 11:53 4.60404 -66.43726 36991 ft 447 kts 96°
2026-04-26 11:54 4.59441 -66.34470 36995 ft 442 kts 96°
2026-04-26 11:54 4.58808 -66.28391 36994 ft 440 kts 96°
2026-04-26 11:55 4.58172 -66.22292 36993 ft 439 kts 96°
2026-04-26 11:55 4.57536 -66.16193 36992 ft 440 kts 96°
2026-04-26 11:56 4.56899 -66.10096 36992 ft 441 kts 96°
2026-04-26 11:56 4.56258 -66.03962 36996 ft 442 kts 96°
2026-04-26 11:57 4.55620 -65.97858 37000 ft 444 kts 96°
2026-04-26 11:57 4.54975 -65.91698 37004 ft 445 kts 96°
2026-04-26 11:58 4.54327 -65.85514 37003 ft 447 kts 96°
2026-04-26 11:58 4.53676 -65.79307 37015 ft 447 kts 96°
2026-04-26 11:59 4.53024 -65.73098 37021 ft 447 kts 96°
2026-04-26 11:59 4.52374 -65.66899 37015 ft 447 kts 96°
2026-04-26 12:00 4.51722 -65.60700 37021 ft 447 kts 96°
2026-04-26 12:00 4.51074 -65.54539 37035 ft 447 kts 96°
2026-04-26 12:01 4.50422 -65.48345 37032 ft 447 kts 96°
2026-04-26 12:01 4.49768 -65.42143 37040 ft 447 kts 96°
2026-04-26 12:02 4.49115 -65.35948 37048 ft 446 kts 96°
2026-04-26 12:02 4.48461 -65.29755 37041 ft 447 kts 96°
2026-04-26 12:03 4.47807 -65.23562 37036 ft 447 kts 96°
2026-04-26 12:03 4.47152 -65.17372 37045 ft 446 kts 96°
2026-04-26 12:04 4.46503 -65.11234 37040 ft 446 kts 96°
2026-04-26 12:04 4.45848 -65.05050 37036 ft 446 kts 96°
2026-04-26 12:05 4.45192 -64.98858 37046 ft 446 kts 96°
2026-04-26 12:05 4.44537 -64.92681 37045 ft 446 kts 96°
2026-04-26 12:06 4.43883 -64.86527 37046 ft 446 kts 96°
2026-04-26 12:06 4.43227 -64.80348 37051 ft 446 kts 96°
2026-04-26 12:07 4.42569 -64.74160 37051 ft 446 kts 96°
2026-04-26 12:07 4.41911 -64.67974 37054 ft 447 kts 96°
2026-04-26 12:08 4.41250 -64.61768 37058 ft 447 kts 96°
2026-04-26 12:08 4.40593 -64.55601 37053 ft 448 kts 96°
2026-04-26 12:09 4.39930 -64.49392 37056 ft 448 kts 96°
2026-04-26 12:09 4.39267 -64.43178 37055 ft 448 kts 96°
2026-04-26 12:10 4.38603 -64.36965 37054 ft 448 kts 96°
2026-04-26 12:10 4.37938 -64.30743 37045 ft 448 kts 95°
2026-04-26 12:11 4.37277 -64.24559 37051 ft 449 kts 95°
2026-04-26 12:11 4.36611 -64.18344 37047 ft 449 kts 95°
2026-04-26 12:12 4.36058 -64.13176 37043 ft 449 kts 95°
2026-04-26 12:12 4.35390 -64.06948 37038 ft 449 kts 95°
2026-04-26 12:13 4.34723 -64.00735 37040 ft 449 kts 95°
2026-04-26 12:13 4.34053 -63.94495 37038 ft 449 kts 95°
2026-04-26 12:14 4.33383 -63.88267 37033 ft 450 kts 95°
2026-04-26 12:14 4.32712 -63.82030 37034 ft 450 kts 95°
2026-04-26 12:15 4.32041 -63.75796 37035 ft 450 kts 95°
2026-04-26 12:15 4.31370 -63.69562 37026 ft 450 kts 95°
2026-04-26 12:16 4.30703 -63.63375 37045 ft 449 kts 95°
2026-04-26 12:16 4.30030 -63.57145 37038 ft 450 kts 95°
2026-04-26 12:17 4.29357 -63.50907 37044 ft 450 kts 95°
2026-04-26 12:17 4.28682 -63.44663 37044 ft 451 kts 95°
2026-04-26 12:18 4.28006 -63.38417 37041 ft 451 kts 96°
2026-04-26 12:18 4.27330 -63.32169 37043 ft 451 kts 96°
2026-04-26 12:19 4.26654 -63.25923 37041 ft 451 kts 96°
2026-04-26 12:19 4.25981 -63.19719 37041 ft 451 kts 96°
2026-04-26 12:20 4.25304 -63.13474 37037 ft 451 kts 96°
2026-04-26 12:20 4.24625 -63.07221 37034 ft 451 kts 96°
2026-04-26 12:21 4.23946 -63.00975 37036 ft 451 kts 96°
2026-04-26 12:21 4.23266 -62.94719 37037 ft 451 kts 96°
2026-04-26 12:22 4.22586 -62.88473 37038 ft 451 kts 96°
2026-04-26 12:22 4.21907 -62.82234 37035 ft 451 kts 96°
2026-04-26 12:23 4.21227 -62.75993 37038 ft 450 kts 96°
2026-04-26 12:23 4.20546 -62.69752 37039 ft 450 kts 96°
2026-04-26 12:24 4.19865 -62.63514 37040 ft 450 kts 96°
2026-04-26 12:24 4.19190 -62.57328 37043 ft 449 kts 96°
2026-04-26 12:25 4.18170 -62.48001 37041 ft 449 kts 96°
2026-04-26 12:25 4.17739 -62.41772 37035 ft 448 kts 88°
2026-04-26 12:26 4.18153 -62.35544 37046 ft 448 kts 86°
2026-04-26 12:26 4.18626 -62.29318 37043 ft 448 kts 86°
2026-04-26 12:27 4.19072 -62.23089 37044 ft 448 kts 86°
2026-04-26 12:27 4.19494 -62.16860 37047 ft 448 kts 87°
2026-04-26 12:28 4.19908 -62.10626 37047 ft 448 kts 87°
2026-04-26 12:28 4.20318 -62.04431 37047 ft 449 kts 87°
2026-04-26 12:29 4.20731 -61.98193 37046 ft 449 kts 87°
2026-04-26 12:30 4.21352 -61.88814 37051 ft 450 kts 87°
2026-04-26 12:30 4.21766 -61.82551 37046 ft 450 kts 87°
2026-04-26 12:31 4.22387 -61.73154 37045 ft 451 kts 87°
2026-04-26 12:31 4.22797 -61.66921 37043 ft 451 kts 87°
2026-04-26 12:32 4.23211 -61.60644 37047 ft 451 kts 87°
2026-04-26 12:33 4.23830 -61.51217 37045 ft 452 kts 87°
2026-04-26 12:33 4.24243 -61.44931 37041 ft 452 kts 87°
2026-04-26 12:34 4.24656 -61.38640 37039 ft 452 kts 87°
2026-04-26 12:34 4.25067 -61.32356 37040 ft 452 kts 87°
2026-04-26 12:35 4.25476 -61.26108 37042 ft 452 kts 87°
2026-04-26 12:35 4.25887 -61.19812 37042 ft 452 kts 87°
2026-04-26 12:36 4.26296 -61.13532 37033 ft 452 kts 87°
2026-04-26 12:36 4.26706 -61.07241 37039 ft 452 kts 87°
2026-04-26 12:37 4.27115 -61.00955 37038 ft 452 kts 87°
2026-04-26 12:37 4.27522 -60.94698 37037 ft 452 kts 87°
2026-04-26 12:38 4.27930 -60.88409 37037 ft 452 kts 87°
2026-04-26 12:38 4.28338 -60.82117 37037 ft 453 kts 87°
2026-04-26 12:39 4.28746 -60.75817 37039 ft 453 kts 87°
2026-04-26 12:39 4.29153 -60.69518 37036 ft 453 kts 87°
2026-04-26 12:40 4.29561 -60.63204 37041 ft 454 kts 87°
2026-04-26 12:40 4.29966 -60.56925 37038 ft 454 kts 87°
2026-04-26 12:41 4.30373 -60.50602 37037 ft 455 kts 87°
2026-04-26 12:41 4.30778 -60.44309 37041 ft 455 kts 87°
2026-04-26 12:42 4.31184 -60.37986 37033 ft 455 kts 87°
2026-04-26 12:42 4.31590 -60.31662 37041 ft 455 kts 87°
2026-04-26 12:43 4.31995 -60.25342 37036 ft 454 kts 87°
2026-04-26 12:43 4.32399 -60.19026 37042 ft 454 kts 87°
2026-04-26 12:44 4.32803 -60.12713 37041 ft 453 kts 87°
2026-04-26 12:44 4.33205 -60.06409 37039 ft 453 kts 86°
2026-04-26 12:45 4.33606 -60.00110 37036 ft 452 kts 86°
2026-04-26 12:45 4.34004 -59.93868 37037 ft 451 kts 86°
2026-04-26 12:46 4.34402 -59.87602 37040 ft 451 kts 86°
2026-04-26 12:46 4.34801 -59.81323 37047 ft 450 kts 86°
2026-04-26 12:47 4.35198 -59.75060 37040 ft 450 kts 86°
2026-04-26 12:47 4.35595 -59.68786 37048 ft 450 kts 86°
2026-04-26 12:48 4.35923 -59.62522 37037 ft 450 kts 88°
2026-04-26 12:48 4.36201 -59.56289 37040 ft 450 kts 88°
2026-04-26 12:49 4.36482 -59.50021 37043 ft 450 kts 87°
2026-04-26 12:49 4.36771 -59.43747 37040 ft 450 kts 87°
2026-04-26 12:50 4.37063 -59.37483 37037 ft 450 kts 87°
2026-04-26 12:50 4.37355 -59.31231 37035 ft 451 kts 87°
2026-04-26 12:51 4.37648 -59.24952 37030 ft 450 kts 87°
2026-04-26 12:51 4.37939 -59.18687 37027 ft 450 kts 87°
2026-04-26 12:52 4.38230 -59.12418 37025 ft 450 kts 87°
2026-04-26 12:52 4.38520 -59.06156 37020 ft 450 kts 87°
2026-04-26 12:53 4.38809 -58.99899 37014 ft 449 kts 87°
2026-04-26 12:53 4.39097 -58.93650 37014 ft 449 kts 87°
2026-04-26 12:54 4.39383 -58.87443 37016 ft 448 kts 87°
2026-04-26 12:54 4.39669 -58.81209 37015 ft 447 kts 87°
2026-04-26 12:55 4.39955 -58.74986 37011 ft 446 kts 87°
2026-04-26 12:55 4.40239 -58.68771 37011 ft 446 kts 87°
2026-04-26 12:56 4.40522 -58.62591 37012 ft 446 kts 87°
2026-04-26 12:56 4.40804 -58.56393 37018 ft 445 kts 88°
2026-04-26 12:57 4.41087 -58.50194 37010 ft 445 kts 88°
2026-04-26 12:57 4.41368 -58.44008 37013 ft 444 kts 88°
2026-04-26 12:58 4.41788 -58.34735 37013 ft 444 kts 88°
2026-04-26 12:58 4.42068 -58.28553 37008 ft 444 kts 88°
2026-04-26 12:59 4.42300 -58.23417 37014 ft 444 kts 88°
2026-04-26 12:59 4.42579 -58.17242 37014 ft 443 kts 88°
2026-04-26 13:00 4.42857 -58.11068 37011 ft 443 kts 88°
2026-04-26 13:00 4.43134 -58.04899 37009 ft 443 kts 88°
2026-04-26 13:01 4.43411 -57.98728 37013 ft 443 kts 88°
2026-04-26 13:01 4.43687 -57.92561 37013 ft 443 kts 88°
2026-04-26 13:02 4.43962 -57.86398 37015 ft 443 kts 88°
2026-04-26 13:02 4.44235 -57.80269 37015 ft 442 kts 88°
2026-04-26 13:03 4.44509 -57.74112 37017 ft 442 kts 88°
2026-04-26 13:03 4.44783 -57.67954 37018 ft 442 kts 88°
2026-04-26 13:04 4.45056 -57.61796 37018 ft 442 kts 88°
2026-04-26 13:04 4.45328 -57.55645 37019 ft 441 kts 88°
2026-04-26 13:05 4.45599 -57.49503 37019 ft 442 kts 88°
2026-04-26 13:05 4.45869 -57.43383 37015 ft 442 kts 88°
2026-04-26 13:06 4.46141 -57.37223 37014 ft 442 kts 88°
2026-04-26 13:06 4.46411 -57.31062 37017 ft 442 kts 88°
2026-04-26 13:07 4.46681 -57.24910 37019 ft 442 kts 88°
2026-04-26 13:07 4.46951 -57.18745 37022 ft 442 kts 88°
2026-04-26 13:08 4.47220 -57.12575 37019 ft 443 kts 88°
2026-04-26 13:08 4.47487 -57.06452 37020 ft 442 kts 88°
2026-04-26 13:09 4.47755 -57.00291 37019 ft 442 kts 88°
2026-04-26 13:09 4.48023 -56.94134 37020 ft 442 kts 88°
2026-04-26 13:10 4.48289 -56.87982 37016 ft 442 kts 88°
2026-04-26 13:10 4.48555 -56.81829 37020 ft 441 kts 88°
2026-04-26 13:11 4.48820 -56.75687 37014 ft 441 kts 88°
2026-04-26 13:11 4.49083 -56.69587 37018 ft 440 kts 88°
2026-04-26 13:12 4.49347 -56.63458 37017 ft 440 kts 88°
2026-04-26 13:12 4.49610 -56.57338 37016 ft 439 kts 88°
2026-04-26 13:13 4.49872 -56.51212 37011 ft 439 kts 88°
2026-04-26 13:13 4.50134 -56.45092 37015 ft 439 kts 88°
2026-04-26 13:14 4.50394 -56.38999 37013 ft 439 kts 88°
2026-04-26 13:14 4.50655 -56.32866 37014 ft 440 kts 88°
2026-04-26 13:15 4.50916 -56.26735 37010 ft 440 kts 88°
2026-04-26 13:15 4.51176 -56.20605 37013 ft 441 kts 88°
2026-04-26 13:16 4.51436 -56.14464 37015 ft 441 kts 88°
2026-04-26 13:16 4.51695 -56.08317 37011 ft 441 kts 88°
2026-04-26 13:17 4.52083 -55.99130 37015 ft 442 kts 88°
2026-04-26 13:18 4.52472 -55.89874 37011 ft 442 kts 88°
2026-04-26 13:19 4.52859 -55.80628 37009 ft 443 kts 88°
2026-04-26 13:19 4.53115 -55.74498 37008 ft 443 kts 88°
2026-04-26 13:20 4.53373 -55.68306 37007 ft 443 kts 88°
2026-04-26 13:20 4.53630 -55.62143 37011 ft 443 kts 88°
2026-04-26 13:21 4.53886 -55.55974 37010 ft 443 kts 88°
2026-04-26 13:21 4.54142 -55.49804 37001 ft 443 kts 88°
2026-04-26 13:22 4.54396 -55.43649 37008 ft 442 kts 88°
2026-04-26 13:22 4.54649 -55.37536 37004 ft 441 kts 88°
2026-04-26 13:23 4.54902 -55.31387 37005 ft 441 kts 88°
2026-04-26 13:23 4.55154 -55.25246 37008 ft 441 kts 88°
2026-04-26 13:24 4.55407 -55.19099 37004 ft 441 kts 88°
2026-04-26 13:24 4.55658 -55.12957 37006 ft 441 kts 88°
2026-04-26 13:25 4.55909 -55.06804 37005 ft 441 kts 88°
2026-04-26 13:25 4.56158 -55.00695 37009 ft 441 kts 88°
2026-04-26 13:26 4.56408 -54.94550 37006 ft 442 kts 88°
2026-04-26 13:26 4.56658 -54.88391 37008 ft 442 kts 88°
2026-04-26 13:27 4.56908 -54.82228 37005 ft 442 kts 88°
2026-04-26 13:27 4.57157 -54.76063 37006 ft 442 kts 88°
2026-04-26 13:28 4.57406 -54.69893 37007 ft 443 kts 88°
2026-04-26 13:28 4.57653 -54.63762 37009 ft 443 kts 88°
2026-04-26 13:29 4.57901 -54.57585 37008 ft 443 kts 88°
2026-04-26 13:29 4.58149 -54.51408 37016 ft 443 kts 88°
2026-04-26 13:30 4.58395 -54.45237 37010 ft 443 kts 88°
2026-04-26 13:30 4.58642 -54.39062 37010 ft 443 kts 88°
2026-04-26 13:31 4.58886 -54.32922 37012 ft 443 kts 88°
2026-04-26 13:31 4.59133 -54.26722 36512 ft 450 kts 88°
2026-04-26 13:31 4.59257 -54.23594 35934 ft 448 kts 88°
2026-04-26 13:32 4.59381 -54.20471 35244 ft 449 kts 88°
2026-04-26 13:32 4.59505 -54.17331 34531 ft 451 kts 88°
2026-04-26 13:32 4.59629 -54.14183 33743 ft 454 kts 88°
2026-04-26 13:32 4.59754 -54.11015 32913 ft 456 kts 88°
2026-04-26 13:33 4.59880 -54.07837 32113 ft 457 kts 88°
2026-04-26 13:33 4.60006 -54.04646 31299 ft 459 kts 88°
2026-04-26 13:33 4.60132 -54.01442 30423 ft 461 kts 88°
2026-04-26 13:33 4.60258 -53.98218 29427 ft 464 kts 88°
2026-04-26 13:34 4.60385 -53.94983 28423 ft 465 kts 88°
2026-04-26 13:34 4.60511 -53.91769 27765 ft 459 kts 88°
2026-04-26 13:34 4.60636 -53.88588 27070 ft 454 kts 88°
2026-04-26 13:34 4.60718 -53.86502 26631 ft 450 kts 88°
2026-04-26 13:35 4.60881 -53.82330 25743 ft 445 kts 88°
2026-04-26 13:35 4.61001 -53.79247 25064 ft 441 kts 88°
2026-04-26 13:35 4.61119 -53.76215 24404 ft 438 kts 88°
2026-04-26 13:35 4.61238 -53.73171 23743 ft 435 kts 88°
2026-04-26 13:36 4.61356 -53.70147 22990 ft 432 kts 88°
2026-04-26 13:36 4.61472 -53.67154 22302 ft 428 kts 88°
2026-04-26 13:36 4.61587 -53.64186 21638 ft 423 kts 88°
2026-04-26 13:36 4.61701 -53.61256 20994 ft 418 kts 88°
2026-04-26 13:37 4.61814 -53.58356 20358 ft 414 kts 88°
2026-04-26 13:37 4.61925 -53.55484 19716 ft 411 kts 88°
2026-04-26 13:37 4.62035 -53.52636 19075 ft 408 kts 88°
2026-04-26 13:37 4.62144 -53.49806 18440 ft 405 kts 88°
2026-04-26 13:38 4.62253 -53.46992 17743 ft 402 kts 88°
2026-04-26 13:38 4.62360 -53.44208 17094 ft 398 kts 88°
2026-04-26 13:38 4.62467 -53.41447 16459 ft 394 kts 88°
2026-04-26 13:38 4.62570 -53.38752 15850 ft 391 kts 88°
2026-04-26 13:39 4.62674 -53.36043 15228 ft 387 kts 88°
2026-04-26 13:39 4.62778 -53.33360 14622 ft 384 kts 88°
2026-04-26 13:39 4.62880 -53.30685 14006 ft 382 kts 88°
2026-04-26 13:39 4.62982 -53.28037 13359 ft 380 kts 88°
2026-04-26 13:40 4.63083 -53.25400 12732 ft 376 kts 88°
2026-04-26 13:40 4.63182 -53.22791 12128 ft 373 kts 88°
2026-04-26 13:40 4.63281 -53.20208 11545 ft 369 kts 88°
2026-04-26 13:40 4.63378 -53.17645 11129 ft 361 kts 88°
2026-04-26 13:41 4.63472 -53.15188 10974 ft 346 kts 88°
2026-04-26 13:41 4.63563 -53.12824 10812 ft 333 kts 88°
2026-04-26 13:41 4.63649 -53.10572 10683 ft 321 kts 88°
2026-04-26 13:41 4.63731 -53.08394 10530 ft 303 kts 88°
2026-04-26 13:42 4.63810 -53.06335 10408 ft 287 kts 88°
2026-04-26 13:42 4.63883 -53.04389 10286 ft 273 kts 88°
2026-04-26 13:42 4.63954 -53.02518 10184 ft 265 kts 88°
2026-04-26 13:42 4.64065 -53.00693 10073 ft 258 kts 83°
2026-04-26 13:43 4.64369 -52.98942 9933 ft 252 kts 79°
2026-04-26 13:43 4.64730 -52.97224 9660 ft 251 kts 79°
2026-04-26 13:43 4.65094 -52.95518 9393 ft 250 kts 79°
2026-04-26 13:43 4.65454 -52.93817 9120 ft 249 kts 79°
2026-04-26 13:44 4.65803 -52.92142 8856 ft 248 kts 79°
2026-04-26 13:44 4.66153 -52.90447 8581 ft 247 kts 79°
2026-04-26 13:44 4.66497 -52.88762 8313 ft 246 kts 79°
2026-04-26 13:44 4.66839 -52.87076 8046 ft 246 kts 79°
2026-04-26 13:45 4.67178 -52.85397 7780 ft 245 kts 79°
2026-04-26 13:45 4.67515 -52.83721 7505 ft 245 kts 79°
2026-04-26 13:45 4.67852 -52.82044 7235 ft 244 kts 79°
2026-04-26 13:45 4.68074 -52.80939 7057 ft 244 kts 79°
2026-04-26 13:46 4.68517 -52.78729 6715 ft 243 kts 79°
2026-04-26 13:46 4.68850 -52.77066 6455 ft 244 kts 79°
2026-04-26 13:46 4.69184 -52.75398 6155 ft 244 kts 79°
2026-04-26 13:46 4.69516 -52.73734 5879 ft 243 kts 79°
2026-04-26 13:47 4.69737 -52.72628 5698 ft 242 kts 79°
2026-04-26 13:47 4.70067 -52.70978 5440 ft 241 kts 79°
2026-04-26 13:47 4.70396 -52.69333 5178 ft 240 kts 79°
2026-04-26 13:47 4.70722 -52.67698 4923 ft 239 kts 79°
2026-04-26 13:48 4.71048 -52.66068 4655 ft 238 kts 79°
2026-04-26 13:48 4.71371 -52.64447 4400 ft 237 kts 79°
2026-04-26 13:48 4.71694 -52.62832 4137 ft 236 kts 79°
2026-04-26 13:48 4.72010 -52.61250 4045 ft 228 kts 79°
2026-04-26 13:49 4.72317 -52.59711 3916 ft 222 kts 79°
2026-04-26 13:49 4.72616 -52.58218 3806 ft 215 kts 79°
2026-04-26 13:49 4.72903 -52.56779 3712 ft 206 kts 80°
2026-04-26 13:49 4.73236 -52.55406 3651 ft 201 kts 71°
2026-04-26 13:50 4.73758 -52.54124 3465 ft 197 kts 68°
2026-04-26 13:50 4.74328 -52.52872 3236 ft 198 kts 67°
2026-04-26 13:50 4.74912 -52.51602 2935 ft 201 kts 67°
2026-04-26 13:50 4.75486 -52.50352 2685 ft 194 kts 67°
2026-04-26 13:51 4.76043 -52.49135 2432 ft 190 kts 67°
2026-04-26 13:51 4.76582 -52.47957 2196 ft 181 kts 67°
2026-04-26 13:51 4.77094 -52.46838 1953 ft 172 kts 67°
2026-04-26 13:51 4.77569 -52.45798 1768 ft 161 kts 67°
2026-04-26 13:52 4.78019 -52.44814 1574 ft 149 kts 66°
2026-04-26 13:52 4.78438 -52.43910 1397 ft 136 kts 67°
2026-04-26 13:52 4.78832 -52.43039 1177 ft 137 kts 66°
2026-04-26 13:52 4.79224 -52.42183 1028 ft 135 kts 67°
2026-04-26 13:53 4.79614 -52.41328 857 ft 137 kts 65°
2026-04-26 13:53 4.80006 -52.40472 684 ft 133 kts 68°
2026-04-26 13:53 4.80390 -52.39634 487 ft 129 kts 66°
2026-04-26 13:53 4.80781 -52.38819 408 ft 133 kts 64°
2026-04-26 13:54 4.81168 -52.37990 239 ft 128 kts 66°
2026-04-26 13:54 4.81509 -52.37201 98 ft 119 kts 67°
2026-04-26 13:54 4.81805 -52.36536 87 ft 80 kts 64°
2026-04-26 13:55 4.82015 -52.36090 85 ft 20 kts 64°
2026-04-26 13:55 4.82056 -52.36007 85 ft 20 kts 63°
2026-04-26 13:55 4.82148 -52.36181 87 ft 18 kts 246°
2026-04-26 13:56 4.82108 -52.36279 85 ft 14 kts 246°
2026-04-26 13:56 4.82113 -52.36351 87 ft 10 kts 338°
2026-04-26 13:56 4.82158 -52.36372 88 ft 2 kts 336°
2026-04-26 13:56 4.82160 -52.36372 88 ft 0 kts 335°